Location: Mainz-Finthen
(49.9906°N, 8.1713°E)
Time: 23:47:07
(UTC+00:00)

BEESAT - Pass Details

Date: 11 December 2021
Orbit: 699 x 708 km, 98.6° (Epoch: 24 January)

Event Time Altitude Azimuth Distance (km) Brightness Sun altitude
Rises 04:59:18 0° 127° (SE) 3,092 ? -20.7°
Reaches altitude 10° 05:01:53 10° 114° (ESE) 2,179 ? -20.3°
Maximum altitude 05:05:43 25° 61° (ENE) 1,425 ? -19.7°
Drops below altitude 10° 05:09:35 10° 7° (N) 2,194 ? -19.1°
Sets 05:12:10 0° 354° (N) 3,118 ? -18.7°
